Theta_e
329 329 330 330 329 329 330 330 330 329 329 330 331 331 332 333 332 332 331 330 329 329 328 326 326 326 327 327 324 323 323 322 323 323 321 321 321 320 319 322 324 324 327
324 325 326 326 326 326 327 326 326 327 327 328 328 329 329 329 329 331 331 331 331 331 330 329 329 328 327 326 326 326 324 323 323 322 322 322 321 323 319 317 315 317 318
321 321 322 322 322 323 323 322 322 323 323 323 323 323 323 323 324 325 326 328 330 330 330 330 329 329 328 327 328 326 326 326 326 325 324 324 324 320 319 318 320 323 322
319 319 319 319 319 319 319 319 319 319 319 319 319 320 320 320 321 321 322 322 323 324 326 327 327 327 327 327 327 325 325 325 324 324 323 323 322 321 320 320 319 317 319
318 318 318 317 317 317 317 317 317 317 317 317 317 317 317 317 317 317 316 316 316 317 318 320 322 323 324 324 324 324 324 324 323 323 323 323 323 322 320 317 320 318 316
317 316 316 315 315 315 314 314 314 315 315 315 315 314 314 314 314 314 313 313 313 314 314 315 315 315 315 315 315 316 317 322 322 322 322 322 322 321 320 316 318 317 316
315 314 313 313 313 312 312 312 311 312 312 312 312 312 312 312 313 313 311 311 310 311 312 313 314 314 314 315 316 317 316 316 316 318 321 321 321 320 319 318 317 318 317
313 312 312 311 310 310 309 309 310 310 311 312 312 312 311 310 310 309 308 307 307 307 308 308 309 310 310 310 312 313 315 316 317 318 318 318 319 319 319 318 317 316 316
312 311 310 308 308 308 308 309 309 308 307 307 307 306 306 306 306 306 305 302 301 301 302 303 304 305 306 307 307 307 309 311 312 313 315 318 318 317 317 317 317 316 315
309 308 307 307 307 307 306 305 304 303 302 302 301 299 299 299 300 300 299 299 299 300 300 301 302 302 303 303 304 306 309 312 314 315 316 317 316 316 316 315 316 316 315
307 306 306 305 303 302 301 299 297 296 295 295 296 297 297 297 297 298 298 298 299 299 300 300 301 301 302 303 305 307 309 310 311 313 314 315 316 315 316 316 315 315 314
304 303 301 300 298 295 294 294 293 293 293 295 296 296 297 298 299 299 299 299 299 299 299 300 301 303 303 304 304 305 306 306 307 308 309 312 314 315 314 314 315 315 316
298 297 296 293 292 292 292 293 293 293 295 297 297 297 297 298 298 299 300 299 299 301 299 300 301 302 303 304 305 304 305 305 306 307 309 310 310 311 313 314 315 315 315
293 291 291 291 291 291 291 291 291 292 293 295 297 297 297 297 298 298 299 300 300 300 299 298 298 299 302 304 305 307 307 306 307 308 309 310 311 312 312 313 314 316 318
290 290 290 290 290 290 290 290 291 292 293 295 296 296 296 296 296 296 296 296 296 296 296 296 297 300 302 306 308 310 311 309 310 309 310 311 311 311 313 314 316 316 319
289 288 289 289 290 290 291 291 293 294 296 297 297 297 297 296 296 295 295 295 295 295 295 296 298 301 305 310 311 311 312 312 312 312 311 311 310 310 309 314 316 316 320
288 288 289 290 291 291 291 292 293 296 298 298 298 299 299 298 298 297 296 296 296 296 295 298 301 305 310 311 311 312 314 315 316 314 315 313 311 311 310 312 316 318 320
289 290 290 290 291 291 292 293 295 299 299 299 300 301 301 300 300 299 298 297 297 300 301 301 306 309 310 312 314 314 315 315 318 314 313 313 313 313 314 316 318 319 319
290 290 291 291 292 294 295 297 299 299 300 300 301 302 303 303 302 301 300 298 301 304 305 308 308 311 312 314 313 313 315 318 318 319 317 317 316 316 318 319 318 319 319
290 290 291 293 295 298 299 300 302 302 301 301 302 304 304 303 305 307 306 306 307 306 306 308 311 312 314 315 315 316 315 316 318 318 320 319 319 319 318 319 318 319 320
289 290 291 295 298 298 299 299 300 300 300 301 302 304 304 304 306 307 308 308 307 306 306 309 311 312 315 316 317 319 319 318 323 321 321 319 317 316 319 317 316 317 321
289 289 291 293 295 296 297 297 298 298 299 302 302 302 303 307 308 308 308 307 307 308 310 310 311 312 317 317 316 315 318 323 321 319 318 322 321 322 322 322 322 322 321
289 288 289 289 290 291 293 296 296 295 298 301 300 299 299 300 303 305 307 308 308 308 310 311 311 316 319 315 315 316 318 321 322 320 321 320 320 321 322 322 323 324 322
287 287 287 287 287 288 288 291 293 293 295 297 297 297 296 296 298 299 300 304 308 310 310 311 313 317 318 317 318 319 318 319 320 319 318 318 319 319 320 323 322 323 320
286 286 286 286 286 286 287 288 289 289 291 292 292 292 292 293 294 295 298 301 306 313 314 316 315 313 316 317 316 315 317 318 318 318 318 319 317 317 317 319 322 324 320
286 285 285 286 286 286 286 286 287 287 287 288 288 289 290 291 291 293 295 300 303 306 312 317 318 315 313 311 312 315 315 316 317 317 317 317 317 316 317 318 317 322 321
Wind_Speed
10 9 9 8 6 6 4 6 7 8 9 11 11 12 13 19 23 24 26 26 26 26 27 30 29 28 27 27 29 28 27 26 11 17 22 26 24 27 23 19 24 24 24
7 6 7 7 6 6 6 7 7 9 10 11 14 16 18 20 22 23 29 28 29 29 30 29 30 29 32 34 32 31 30 29 26 20 23 26 29 17 20 28 30 27 32
6 7 6 4 5 6 8 9 10 12 14 15 16 18 20 21 22 24 26 26 29 34 34 33 34 33 35 33 31 31 29 27 27 26 22 23 18 24 28 27 24 27 31
6 7 8 8 9 10 12 13 14 15 16 17 18 20 21 22 23 25 26 27 30 29 29 31 35 37 36 34 34 35 32 33 30 30 29 27 26 27 29 12 11 20 23
9 11 12 12 13 14 15 16 17 19 20 21 22 23 23 24 24 25 26 26 25 25 26 27 27 27 29 33 37 35 33 31 29 27 24 23 21 19 16 11 4 11 22
12 14 16 17 16 18 19 20 22 22 22 22 22 23 24 24 24 28 31 33 28 26 28 28 29 31 32 33 32 31 31 31 31 27 25 20 19 14 12 13 10 5 3
15 17 19 20 21 21 20 20 20 21 21 22 23 24 26 26 26 23 19 23 24 21 23 24 26 26 28 27 27 29 33 34 37 36 33 32 28 27 25 21 12 9 10
18 19 20 21 21 20 20 21 22 21 21 21 20 20 21 21 23 27 25 23 19 21 23 25 26 29 31 33 32 31 29 28 27 27 30 33 34 30 29 27 21 16 17
20 20 21 21 23 23 23 21 19 20 20 21 22 24 24 25 25 28 28 29 25 27 27 26 28 28 27 29 33 33 32 32 33 36 34 31 30 29 30 26 19 13 9
21 22 23 22 22 21 22 22 20 20 22 23 24 26 32 34 36 43 43 30 26 27 27 29 31 32 32 33 35 32 27 26 24 23 26 27 29 32 32 30 24 18 14
23 23 23 23 23 23 22 22 24 27 28 30 27 27 27 27 29 30 29 28 25 22 21 22 24 26 30 32 33 30 28 25 24 23 21 20 22 20 30 30 30 25 19
20 20 22 23 22 24 28 29 27 25 25 23 21 24 23 23 23 27 26 27 27 24 24 23 24 27 29 32 32 28 29 30 28 26 24 19 18 18 23 23 25 28 30
21 23 23 27 27 23 24 24 23 21 21 20 20 20 22 22 22 23 21 23 27 25 24 23 23 28 31 30 35 37 36 33 25 23 23 23 26 26 23 25 27 29 30
21 21 21 22 23 22 21 21 22 20 20 20 19 19 20 21 20 18 17 16 13 11 11 18 28 33 32 33 33 35 31 27 26 26 26 25 24 23 24 25 24 22 21
19 21 21 20 21 22 21 22 23 25 23 23 23 24 21 22 20 20 21 23 23 23 25 28 24 23 24 23 23 25 25 27 28 31 29 26 23 18 20 22 21 18 15
19 19 20 21 21 20 21 24 24 22 24 27 28 30 30 29 30 29 27 24 23 21 20 19 21 22 21 21 23 27 23 26 29 32 33 32 29 27 28 17 16 14 17
20 21 20 20 19 19 20 18 19 26 22 19 21 22 23 26 25 22 20 19 20 19 19 18 19 21 20 20 21 28 18 18 17 15 32 31 28 26 25 24 18 18 16
19 19 19 20 20 20 19 19 19 15 16 20 25 24 18 15 13 13 10 11 15 12 19 18 18 18 22 20 25 16 18 27 12 4 15 22 24 24 23 21 21 18 16
19 19 20 21 21 21 22 19 15 16 16 18 21 21 18 15 10 7 8 11 12 15 16 14 17 18 20 12 12 14 26 23 11 6 11 16 21 23 22 20 20 20 18
18 19 21 19 20 15 16 17 16 14 15 17 17 18 16 18 16 9 10 12 4 6 12 16 20 20 21 5 16 16 24 22 12 8 11 21 19 15 19 18 19 17 17
18 18 18 18 16 14 16 18 16 17 17 18 19 22 25 21 18 19 18 11 5 12 12 16 21 19 18 16 18 6 17 15 7 22 18 16 22 20 25 28 20 18 17
16 17 16 16 16 16 17 16 18 19 18 18 20 25 28 21 21 13 15 14 12 11 14 17 22 23 19 15 17 16 15 7 20 23 8 15 29 22 25 28 23 22 23
15 17 17 16 17 17 17 16 18 20 21 18 22 24 26 26 25 23 21 18 16 16 15 18 18 22 5 7 7 13 18 19 19 24 23 27 28 22 15 21 20 21 18
17 17 17 18 19 18 18 17 18 20 21 22 23 22 23 23 23 24 25 20 18 13 11 17 15 6 9 5 11 15 17 26 25 22 23 26 23 15 21 22 18 15 21
19 19 19 20 20 20 19 19 19 20 19 20 22 24 25 25 25 28 29 30 27 20 20 21 8 8 10 8 5 21 25 27 26 23 22 25 26 24 23 19 15 18 22
22 22 21 21 22 22 21 20 20 20 21 21 22 23 24 25 27 28 30 29 30 31 38 28 21 23 20 19 20 20 21 23 25 24 22 23 19 18 16 16 15 13 18
Wind_Direction
70 58 55 39 32 27 358 333 329 322 309 299 291 277 259 242 238 238 240 241 245 249 249 246 250 253 255 258 260 265 269 269 262 271 282 288 291 297 297 313 312 301 298
60 66 60 32 13 4 350 336 328 313 295 289 289 283 276 270 267 259 253 252 251 251 254 256 253 255 256 256 260 263 264 269 278 277 273 274 279 271 303 306 301 286 284
17 13 48 22 344 331 320 311 301 296 291 289 284 283 282 281 281 278 277 272 258 251 254 251 254 257 258 259 259 264 264 270 268 264 269 265 265 289 295 289 290 296 285
2 350 340 337 325 307 296 291 287 285 285 285 284 283 281 281 280 279 279 279 279 278 274 267 262 259 259 260 259 257 260 260 263 268 273 273 274 276 267 262 323 328 329
337 326 319 309 302 297 292 286 284 282 281 281 282 281 281 281 280 281 282 287 289 292 289 286 284 278 272 266 260 261 258 256 260 259 262 262 258 251 261 260 260 314 314
326 311 307 304 298 295 294 290 286 283 282 282 281 282 283 285 286 289 293 296 294 288 286 286 286 285 286 287 286 283 276 263 254 253 257 256 254 257 270 266 277 312 326
313 307 306 308 305 302 301 302 302 300 298 293 290 288 285 284 285 284 297 295 293 295 293 289 287 282 284 292 290 284 278 274 269 265 257 253 255 254 261 270 266 272 276
308 306 308 306 307 311 312 310 308 306 301 299 301 303 304 305 301 303 305 306 297 291 286 283 283 283 279 277 279 279 279 276 275 272 270 265 256 254 251 254 258 260 273
307 310 312 319 318 316 311 313 322 324 318 312 308 304 299 293 284 282 288 296 296 290 285 281 279 280 278 273 278 282 277 271 271 271 268 264 263 263 253 245 234 234 241
314 320 321 322 323 330 334 327 322 317 309 305 299 291 290 286 284 283 287 287 283 281 280 276 277 276 276 276 272 267 266 266 271 277 271 261 254 250 249 241 226 216 226
321 321 324 330 333 322 319 315 313 306 298 294 290 288 286 284 288 293 291 284 273 276 276 276 276 277 277 278 275 269 253 269 274 279 274 267 251 249 240 230 226 223 233
331 327 323 321 320 312 309 303 299 295 289 283 284 287 288 290 290 288 290 284 278 264 266 270 275 282 285 287 287 282 274 271 267 264 262 256 241 230 226 227 235 240 235
328 319 315 310 309 304 298 293 293 290 281 281 281 281 286 288 286 286 285 289 287 281 263 267 280 290 289 291 275 271 271 265 252 252 250 245 242 243 243 241 237 238 244
318 312 307 306 307 305 299 294 292 290 286 282 283 283 288 288 288 292 287 292 308 308 304 300 298 296 292 287 277 269 261 250 243 239 241 245 243 238 238 237 239 229 221
315 311 306 304 304 301 300 294 290 294 281 280 284 284 283 281 280 279 283 289 291 295 299 302 297 292 290 280 272 269 255 245 239 235 236 234 232 233 230 228 217 227 206
314 312 309 307 306 303 301 303 314 308 308 300 296 290 288 282 284 284 286 287 286 286 290 281 281 280 274 278 281 270 255 251 244 234 229 225 219 219 230 227 213 218 209
310 309 311 311 310 309 306 301 302 315 318 316 307 300 293 287 289 291 290 285 281 279 261 268 273 277 293 286 285 279 287 273 264 255 220 210 194 199 204 212 213 206 203
314 314 314 312 307 303 299 296 298 308 319 323 332 333 331 324 300 285 283 280 282 279 270 260 267 287 293 287 281 300 309 305 337 106 123 154 169 174 180 196 194 187 188
324 321 322 315 311 307 306 300 301 304 319 326 331 343 347 337 326 294 266 254 269 280 294 299 309 306 311 309 273 281 293 301 310 106 130 146 158 167 176 176 176 188 195
329 331 330 319 319 322 349 338 325 342 336 337 332 331 336 341 326 308 266 254 277 308 317 322 323 326 330 303 290 310 300 299 278 220 131 129 143 160 168 163 170 172 179
335 338 341 329 334 357 358 350 354 349 342 343 339 334 340 335 314 313 309 307 23 334 326 323 326 340 357 328 319 331 276 258 220 166 173 150 155 177 158 182 176 185 148
347 350 349 351 354 353 352 353 350 352 348 344 355 359 11 359 346 14 24 17 354 342 327 331 330 337 343 323 329 319 332 356 89 108 117 131 170 175 135 126 150 144 130
6 8 8 8 6 359 358 357 0 358 345 6 8 5 5 3 2 3 358 352 340 337 337 324 337 351 359 331 281 298 326 340 72 82 75 74 68 69 115 138 141 134 137
19 18 17 14 12 10 5 2 0 2 359 359 359 1 0 358 357 356 356 359 356 332 295 282 293 15 310 300 342 6 73 74 81 71 70 63 69 71 77 129 125 130 134
30 27 25 20 16 13 8 10 11 5 3 1 357 355 353 354 355 358 2 1 352 354 335 323 72 234 226 321 348 60 66 72 72 69 63 62 61 51 40 50 79 135 134
36 32 28 24 20 19 15 12 12 11 7 2 359 357 356 356 356 359 357 360 359 11 21 20 74 99 94 74 66 69 70 70 62 63 60 58 65 53 38 45 33 115 132